FW2567 Weather Reports


time (UTC)temp
C
wind
direction
speed
KPH
gust
KPH
rain 1hr
cm
rain 24hr
cm
rain mn
cm
humidity
%
barometer
mb
20260510050030 10 149 1.6 6.4 0.00 0.00 0.00 78 1018.1
20260510043032 11 150 1.6 4.8 0.00 0.00 0.00 77 1018.0
20260510040030 13 157 4.8 8.0 0.00 0.00 0.00 72 1017.7
20260510034531 15 157 0.0 1.6 0.00 0.00 0.00 68 1017.6
20260510033030 16 157 0.0 1.6 0.00 0.00 0.00 66 1017.5
20260510031531 17 157 0.0 3.2 0.00 0.00 0.00 64 1017.5
20260510024533 19 157 0.0 3.2 0.00 0.00 0.00 59 1017.6
20260510023028 20 185 1.6 4.8 0.00 0.00 0.00 56 1017.5
20260510020031 22 247 0.0 0.0 0.00 0.00 0.00 45 1017.5
20260510013029 23 247 1.6 3.2 0.00 0.00 0.00 38 1017.8
20260510011530 23 265 1.6 4.8 0.00 0.00 0.00 34 1017.9
20260510010030 24 287 4.8 11.3 0.00 0.00 0.00 32 1017.9
20260510004531 25 273 6.4 11.3 0.00 0.00 0.00 32 1017.9
20260510003028 25 293 6.4 12.9 0.00 0.00 0.00 34 1018.0
20260510001530 25 315 4.8 12.9 0.00 0.00 0.00 36 1018.0
20260510000032 25 353 4.8 12.9 0.00 0.00 0.00 36 1018.0
20260509234529 26 11 4.8 11.3 0.00 0.00 0.00 36 1018.3
20260509233108 26 12 4.8 11.3 0.00 0.00 0.00 36 1018.4
20260509231531 25 359 4.8 12.9 0.00 0.00 0.00 37 1018.7
20260509230030 25 5 4.8 11.3 0.00 0.00 0.00 38 1018.9
20260509224532 25 2 3.2 11.3 0.00 0.00 0.00 38 1019.2
20260509223032 24 23 6.4 12.9 0.00 0.00 0.00 40 1019.5
20260509221532 24 13 6.4 12.9 0.00 0.00 0.00 41 1019.7
20260509220032 23 17 4.8 16.1 0.00 0.00 0.00 43 1019.8
20260509214605 23 17 4.8 14.5 0.00 0.00 0.00 45 1020.0
20260509213029 22 354 6.4 16.1 0.00 0.00 0.00 47 1020.2
20260509211531 22 336 3.2 9.7 0.00 0.00 0.00 48 1020.3
20260509210111 -17 0 0.0 0.0 0.00 0.00 0.00 100
20260509204549 -17 0 0.0 0.0 0.00 0.00 0.00 100
20260509203031 21 11 4.8 12.9 0.00 0.00 0.00 48 1020.7
20260509201530 21 15 6.4 12.9 0.00 0.00 0.00 48 1021.0
20260509200106 21 23 4.8 16.1 0.00 0.00 0.00 49 1021.2
20260509194529 21 16 4.8 12.9 0.00 0.00 0.00 48 1021.5
20260509193031 21 11 4.8 11.3 0.00 0.00 0.00 47 1021.6
20260509191529 21 4 4.8 11.3 0.00 0.00 0.00 47 1021.8
20260509190030 21 35 3.2 12.9 0.00 0.00 0.00 47 1021.9
20260509184603 21 48 4.8 11.3 0.00 0.00 0.00 46 1022.1
20260509183031 21 47 6.4 12.9 0.00 0.00 0.00 45 1022.2
20260509181531 20 12 3.2 8.0 0.00 0.00 0.00 46 1022.3
20260509174557 20 359 4.8 14.5 0.00 0.00 0.00 44 1022.3
20260509173031 19 15 3.2 11.3 0.00 0.00 0.00 45 1022.3
20260509171529 18 341 3.2 9.7 0.00 0.00 0.00 46 1022.4
20260509170032 18 345 1.6 9.7 0.00 0.00 0.00 46 1022.6
20260509163031 17 286 0.0 4.8 0.00 0.00 0.00 49 1022.7
20260509161646 17 349 1.6 4.8 0.00 0.00 0.00 51 1022.9
20260509160113 16 6 0.0 6.4 0.00 0.00 0.00 53 1022.9
20260509153030 15 294 0.0 3.2 0.00 0.00 0.00 57 1023.1
20260509151530 14 298 3.2 4.8 0.00 0.00 0.00 60 1023.2
20260509150030 13 21 0.0 4.8 0.00 0.00 0.00 65 1023.1
20260509144531 12 67 0.0 0.0 0.00 0.00 0.00 73 1023.2
20260509143031 11 105 0.0 1.6 0.00 0.00 0.00 81 1023.3
20260509141646 8 135 0.0 0.0 0.00 0.00 0.00 87 1023.2
20260509140029 6 135 0.0 0.0 0.00 0.00 0.00 90 1023.0
20260509134528 3 182 0.0 3.2 0.00 0.00 0.00 91 1022.9
20260509133030 2 198 0.0 4.8 0.00 0.00 0.00 92 1022.7
20260509131531 2 150 1.6 9.7 0.00 0.00 0.00 92 1022.6
20260509130028 2 164 4.8 33.8 0.00 0.00 0.00 93 1022.3
20260509124532 2 212 1.6 37.0 0.00 0.00 0.00 92 1022.2
20260509123106 2 205 1.6 6.4 0.00 0.00 0.00 92 1022.2
20260509121541 2 193 3.2 6.4 0.00 0.00 0.00 92 1022.2
20260509120031 2 189 3.2 38.6 0.00 0.00 0.00 91 1022.1
20260509114606 2 225 0.0 11.3 0.00 0.00 0.00 91 1022.1
20260509111530 2 220 0.0 4.8 0.00 0.00 0.00 90 1022.3
20260509110031 3 145 0.0 6.4 0.00 0.00 0.00 90 1022.3
20260509104531 3 170 1.6 8.0 0.00 0.00 0.00 89 1022.3
20260509103030 4 255 0.0 4.8 0.00 0.00 0.00 89 1022.4
20260509101605 4 188 3.2 8.0 0.00 0.00 0.00 88 1022.5
20260509100032 4 172 1.6 8.0 0.00 0.00 0.00 87 1022.6
20260509094529 5 292 0.0 4.8 0.00 0.00 0.00 85 1022.7
20260509093029 5 212 3.2 8.0 0.00 0.00 0.00 83 1022.7
20260509091604 6 354 0.0 4.8 0.00 0.00 0.00 82 1022.8
20260509090030 7 49 0.0 9.7 0.00 0.00 0.00 81 1023.0
20260509084531 7 148 4.8 16.1 0.00 0.00 0.00 81 1023.2
20260509083033 7 153 6.4 14.5 0.00 0.00 0.00 81 1023.4
20260509081531 7 164 6.4 8.0 0.00 0.00 0.00 80 1023.6
20260509080028 8 159 4.8 11.3 0.00 0.00 0.00 80 1023.8
20260509073031 7 156 8.0 16.1 0.00 0.00 0.00 82 1023.9
20260509063030 10 208 3.2 6.4 0.00 0.00 0.00 72 1024.2
20260509061530 11 250 1.6 6.4 0.00 0.00 0.00 71 1024.2
20260509060032 11 316 3.2 9.7 0.00 0.00 0.00 71 1024.1
20260509054532 11 137 3.2 8.0 0.00 0.00 0.00 71 1024.2
20260509053031 11 272 1.6 6.4 0.00 0.00 0.00 71 1024.1
20260509051529 10 260 1.6 11.3 0.00 0.00 0.00 72 1024.0